Theta_e
291 292 292 293 292 292 292 292 292 292 293 293 292 293 296 297 293 290 297 299 298 300 304 306 309 317 317 321 322 324 329 330 330 330 330 331 334 338 339 340 336 335 336 339 342 344 345 346 346 346 348 348 349 349 349 350 351 352 355 356 357 358 357 356 355 355 355 355 355 354 354 354 354 354 354 354 354 353 352 352 351 350 351 353 353 352 353
290 291 291 292 291 291 292 292 293 293 293 293 294 294 295 295 294 296 297 298 299 302 305 308 312 319 321 322 324 326 327 327 327 328 328 330 331 333 335 339 341 343 341 341 342 343 344 345 344 345 346 347 349 349 348 350 351 353 355 355 356 357 357 357 356 355 355 355 354 355 354 353 353 353 353 353 353 354 353 352 351 350 351 352 354 354 354
288 291 293 292 292 291 290 291 292 292 292 293 294 294 295 298 296 297 298 298 299 306 308 315 319 320 322 321 323 323 324 324 325 326 326 328 330 331 333 336 339 341 343 343 345 346 342 344 344 345 345 347 348 349 349 350 351 353 355 354 356 356 357 358 357 356 355 354 354 354 354 354 354 353 352 352 353 354 354 353 352 351 350 351 352 354 355
286 290 291 291 292 291 290 289 291 291 291 290 292 292 295 295 294 296 296 295 297 305 313 317 320 321 320 318 319 319 320 321 323 323 324 325 326 328 330 332 334 337 340 343 343 341 341 341 343 346 348 349 349 348 349 349 351 353 354 354 355 356 357 358 358 356 355 355 354 354 354 354 354 353 352 352 352 353 354 352 352 352 350 350 352 353 355
285 290 291 290 290 289 286 287 290 292 292 293 294 295 297 297 297 293 291 294 302 306 315 316 317 319 318 318 317 316 317 319 320 321 322 322 323 326 327 328 331 333 335 338 341 346 345 342 340 342 344 348 348 347 347 348 347 350 352 351 354 355 357 359 358 357 356 355 355 354 354 355 354 353 352 352 351 352 353 354 353 352 351 350 351 353 354
284 289 289 290 286 279 281 293 295 295 292 293 292 292 294 297 298 296 298 299 302 305 308 314 316 317 317 318 316 317 317 316 317 319 320 321 322 324 325 326 328 330 333 336 338 342 351 348 351 351 349 346 347 350 351 351 351 351 349 346 347 352 357 359 358 358 356 356 355 355 355 355 355 353 352 352 352 352 354 355 353 353 352 350 351 353 354
283 287 288 284 278 280 292 296 296 297 296 296 301 299 299 302 302 299 299 300 307 314 314 314 318 320 318 316 315 316 317 317 317 317 318 319 321 322 323 324 326 328 330 334 335 340 342 349 349 343 344 345 346 348 349 350 351 351 351 348 346 344 347 354 359 358 357 356 355 355 356 356 355 354 353 352 352 352 353 354 354 353 352 351 350 353 355
287 285 283 276 279 290 294 295 296 298 297 302 301 298 301 306 307 308 307 309 312 313 314 316 318 322 321 317 316 315 316 317 317 316 317 319 320 321 323 324 325 327 329 330 332 335 341 345 346 351 346 345 346 347 350 349 349 349 350 349 347 347 347 348 357 358 357 356 356 356 356 356 355 354 353 352 352 352 352 353 355 355 354 353 352 351 354
281 283 282 283 290 289 291 291 293 295 297 301 299 294 299 306 306 306 306 308 310 311 312 314 317 319 320 317 312 315 315 316 317 317 320 319 320 321 323 324 325 327 329 330 332 335 337 340 344 347 351 352 346 345 345 349 347 348 349 348 347 347 348 351 358 359 358 357 356 356 356 356 355 355 354 353 353 354 351 351 354 354 354 353 353 352 352
288 282 280 281 280 278 284 293 297 307 307 309 308 301 297 305 305 306 306 306 308 309 310 313 316 318 317 311 309 312 314 315 316 317 318 320 320 320 321 323 325 326 327 329 332 335 336 339 343 347 351 355 352 348 343 347 347 347 348 347 348 348 349 352 358 360 359 358 357 357 356 356 356 356 356 355 353 355 352 351 351 354 355 354 354 354 352
287 284 279 278 275 281 290 295 303 305 306 307 308 299 291 303 304 305 306 306 307 307 308 311 314 312 307 307 308 311 313 314 316 316 316 318 319 319 320 321 322 323 325 328 332 335 336 337 341 344 346 348 350 351 351 344 347 347 347 348 349 349 350 354 359 361 360 359 358 357 357 357 357 357 356 355 354 355 354 353 351 354 356 355 354 354 354
286 285 281 279 284 281 294 300 302 304 305 305 300 287 287 300 305 305 305 304 305 306 308 310 310 307 303 304 307 312 313 314 314 315 316 316 317 317 319 321 322 324 327 328 330 332 334 336 341 343 345 347 348 350 351 351 345 344 347 349 350 351 353 357 361 361 361 360 359 358 358 358 358 358 358 357 355 354 354 354 351 352 355 355 354 354 355
287 286 284 285 286 294 298 299 302 303 306 302 286 282 294 302 304 305 305 305 305 305 306 307 305 308 310 310 311 316 313 313 313 315 317 317 317 317 319 320 325 323 325 327 328 331 334 337 340 343 346 346 347 349 351 349 348 346 345 348 350 351 355 359 361 362 362 361 360 359 360 359 359 359 359 358 356 355 354 354 352 351 352 354 355 355 355
284 285 283 284 287 297 300 302 303 306 299 286 284 297 301 302 304 305 306 305 306 306 305 306 306 309 311 314 318 313 313 313 314 314 314 316 318 319 320 322 322 322 323 324 327 330 333 336 339 341 344 345 347 348 350 351 351 349 346 345 347 350 358 360 361 362 362 362 362 361 361 361 360 359 359 359 358 356 355 353 351 350 352 354 355 355 356
287 285 283 282 278 293 300 300 301 304 293 292 298 300 304 307 305 305 305 305 306 306 305 307 307 308 310 311 313 312 313 314 314 312 312 313 317 317 318 319 321 322 322 323 325 328 332 335 338 342 345 347 349 351 350 351 354 352 346 343 347 351 356 360 361 362 363 362 362 363 363 362 361 359 360 359 358 357 355 353 351 350 352 354 354 355 355
283 283 281 282 291 295 301 298 292 298 302 303 304 304 302 305 306 305 304 305 306 306 306 306 307 308 309 310 311 312 313 314 314 312 312 314 316 319 320 319 320 322 322 324 326 330 332 335 340 348 353 354 356 356 355 357 356 353 345 346 346 351 358 359 360 362 363 364 364 364 364 363 362 361 361 360 359 357 355 353 351 350 350 352 353 354 354
288 285 289 291 295 300 301 300 300 302 304 307 306 305 304 303 304 306 305 305 306 307 306 306 306 306 308 309 311 311 311 312 313 312 312 314 315 317 317 318 321 322 322 324 327 328 331 334 341 349 354 353 353 352 357 360 357 353 346 348 351 350 354 359 360 362 364 364 364 365 365 365 363 361 361 361 359 358 357 354 352 350 350 350 351 352 353
296 297 297 299 300 300 300 303 304 304 305 306 307 306 303 304 305 306 304 306 306 307 308 306 306 306 308 309 310 311 313 311 313 314 312 314 316 318 318 319 320 322 324 325 325 326 328 334 342 345 346 347 345 348 353 358 357 353 349 349 352 354 356 357 359 362 363 364 365 365 366 366 365 364 362 362 360 359 358 356 354 352 351 350 349 350 350
289 285 300 296 297 297 298 301 305 305 305 305 305 305 306 305 306 306 307 306 306 307 307 306 306 307 308 309 310 311 313 312 311 313 312 314 316 317 317 319 321 322 322 323 323 325 327 332 338 340 340 342 344 347 350 353 360 355 351 350 353 355 357 358 359 362 363 363 364 364 365 366 366 365 364 363 361 359 359 358 356 354 352 351 350 349 349
288 288 293 295 296 297 298 302 299 300 301 303 304 304 305 305 306 307 307 308 307 307 307 307 306 307 308 309 309 311 312 312 311 311 313 314 315 317 318 319 323 322 322 322 321 323 325 330 332 335 337 339 341 343 348 351 352 358 354 352 353 356 358 358 359 361 362 362 362 363 363 365 365 365 364 363 362 360 359 359 357 355 354 352 351 350 349
291 294 296 295 295 296 299 298 299 300 301 301 302 303 303 304 304 306 307 308 308 308 308 309 308 307 308 309 310 311 310 311 311 312 312 313 315 316 317 319 322 322 322 322 320 322 324 328 328 329 333 337 339 338 343 351 351 355 357 353 354 357 358 359 359 360 362 362 363 363 363 363 365 365 364 363 361 362 364 364 361 359 357 356 354 354 353
286 287 290 294 287 288 292 295 297 299 301 302 302 302 302 303 303 305 305 306 308 308 309 309 309 308 307 309 310 311 312 311 312 313 314 314 315 316 318 320 321 322 324 323 320 321 323 325 325 326 329 331 335 338 339 344 350 348 354 356 356 358 359 359 360 359 360 361 362 362 363 362 362 362 346 332 350 362 361 350 342 337 336 356 358 356 355
285 292 295 297 295 294 294 296 298 299 301 301 301 301 302 303 304 305 305 304 305 306 308 310 310 309 309 309 311 311 312 312 313 313 313 314 314 315 319 319 320 321 323 323 320 321 321 323 323 324 326 327 328 334 335 338 344 348 346 351 357 358 357 357 356 358 359 360 361 362 362 362 362 359 352 341 312 307 318 340 334 323 320 326 332 337 353
296 298 297 298 296 293 295 297 298 300 301 301 300 302 303 303 303 304 304 305 304 305 307 308 310 310 309 310 311 311 313 314 314 315 315 316 316 318 319 319 321 322 322 319 319 320 320 322 321 322 324 325 325 329 330 333 339 346 345 343 341 340 346 344 342 344 351 356 359 360 360 361 361 357 353 350 346 315 302 316 324 319 316 319 320 322 329
294 299 299 300 299 299 301 301 300 300 302 303 302 301 302 302 304 305 304 305 306 306 307 308 309 311 310 311 311 312 312 314 315 317 318 318 318 319 318 317 320 322 320 318 319 319 320 321 321 321 322 323 324 327 327 329 332 341 344 342 341 341 341 342 344 345 345 345 347 356 358 358 359 358 355 352 351 345 328 304 300 304 308 311 314 318 322
301 300 301 301 301 301 302 301 299 301 302 302 301 302 303 306 305 305 305 305 305 306 307 307 308 310 311 311 311 312 313 314 316 317 316 317 317 318 318 317 319 323 319 318 318 319 320 320 320 320 320 322 322 326 326 327 330 337 345 342 341 342 342 343 342 343 345 346 347 349 351 356 359 358 356 355 354 346 338 337 337 322 308 303 301 301 297
302 303 301 298 297 297 300 297 297 301 301 301 301 301 303 303 305 305 305 306 306 307 307 308 309 310 311 312 313 314 313 315 316 316 316 317 318 319 318 318 319 323 320 318 317 319 321 320 318 318 319 320 322 325 326 326 329 335 343 344 343 344 348 348 343 344 345 347 347 347 349 349 352 356 356 355 352 346 345 343 344 343 339 331 308 299 314
302 303 302 294 293 295 297 300 302 302 301 300 301 301 302 303 303 303 304 305 306 307 309 310 310 310 310 311 312 312 314 314 314 314 314 316 319 319 318 319 322 323 320 318 317 318 319 318 317 317 317 319 322 324 324 325 328 333 341 342 342 342 344 345 348 347 348 346 347 348 349 349 348 348 352 353 352 349 345 347 347 345 341 332 324 310 301
300 301 303 302 301 302 302 303 302 301 300 301 302 303 303 302 302 302 303 305 307 308 309 311 312 312 311 311 312 313 313 313 313 312 312 315 321 321 321 323 322 321 318 318 316 316 316 315 315 315 316 319 321 323 324 324 326 332 339 344 341 341 340 342 348 347 348 347 346 344 341 343 342 345 345 348 350 350 349 350 349 348 340 328 329 331 325
301 303 302 301 302 301 299 297 298 300 299 300 301 302 302 301 300 301 302 304 305 306 309 312 312 312 313 313 314 314 314 313 311 313 313 317 319 321 321 321 319 317 316 315 314 314 314 314 314 314 315 318 320 321 322 323 325 332 335 340 341 338 338 338 342 346 345 345 343 340 343 344 343 342 342 339 338 339 341 340 343 343 338 337 337 338 334
302 302 302 302 301 300 298 297 298 299 299 299 300 300 301 301 300 301 302 303 305 307 310 312 314 314 314 314 314 316 317 315 313 313 315 318 319 319 319 317 314 313 311 311 313 314 313 313 313 313 315 317 320 321 321 322 324 331 333 339 341 332 328 329 334 341 342 342 342 342 341 340 341 342 340 339 339 340 341 343 341 339 339 340 337 333 331
300 301 301 300 300 299 298 298 297 298 298 299 298 298 299 299 299 300 302 303 305 307 310 312 313 314 314 315 316 316 316 314 312 312 315 319 318 316 316 316 315 314 311 311 312 313 313 313 312 313 315 317 319 320 320 321 323 328 330 336 338 337 332 330 338 339 341 343 342 341 340 340 340 340 336 335 335 337 342 344 341 338 336 333 331 333 335
298 296 296 298 299 299 298 297 296 297 298 297 298 300 301 301 302 302 302 304 305 307 309 311 313 315 317 317 316 316 316 315 314 314 315 315 315 315 315 316 315 313 311 310 310 311 312 311 313 314 315 316 317 318 319 320 323 326 327 329 331 333 336 330 332 338 341 338 337 337 338 337 337 336 337 338 338 338 336 334 333 331 329 326 324 322 318
299 297 298 299 299 297 296 297 298 298 298 300 299 300 300 301 301 302 303 305 304 306 307 311 314 316 317 316 316 315 315 314 314 313 313 313 313 313 313 314 313 313 311 310 310 310 311 312 314 314 314 315 316 316 318 319 322 324 325 327 327 326 328 328 329 333 333 333 334 336 336 335 334 333 333 334 334 333 332 331 329 328 326 325 324 321 312
302 302 303 302 302 302 302 301 300 298 298 298 298 300 301 301 302 302 304 304 304 305 309 313 313 314 315 315 315 315 314 313 312 312 311 311 311 311 311 311 310 310 310 309 309 309 311 313 314 314 313 313 314 315 317 318 320 321 323 324 325 324 325 326 325 325 327 328 329 328 328 329 330 331 331 330 330 330 330 329 328 327 326 324 323 322 319
304 303 302 302 302 302 302 302 302 301 300 299 299 300 300 301 302 302 302 303 305 308 310 312 311 311 311 312 312 312 312 312 311 310 309 309 309 309 309 308 308 308 308 308 309 310 311 312 315 315 313 312 313 313 316 317 317 316 319 320 321 321 322 322 321 322 322 323 323 323 323 324 325 325 325 324 323 321 320 320 320 321 322 321 319 318 317
305 304 303 303 303 302 302 302 302 302 301 301 300 300 301 301 301 302 304 303 305 306 309 309 308 307 307 308 310 311 311 310 309 308 308 308 308 307 307 307 307 306 307 305 308 311 311 312 313 313 311 310 310 311 315 318 316 315 315 316 317 318 318 317 318 318 318 319 319 319 320 320 319 319 320 319 317 317 317 316 315 315 314 315 314 313 312
305 304 303 303 303 303 302 302 304 303 303 302 302 302 303 302 302 302 302 303 304 305 307 308 307 307 307 307 306 306 307 309 309 309 308 307 307 305 305 304 305 306 306 306 309 310 311 312 312 310 309 309 309 310 313 315 316 312 312 313 315 315 315 314 315 315 315 315 316 315 315 314 314 314 315 315 316 315 314 314 313 312 311 311 310 309 308
303 305 304 304 305 303 303 303 303 304 303 301 301 301 303 304 303 302 302 302 303 306 306 306 307 306 305 304 304 304 304 305 306 306 307 306 306 304 303 304 305 306 307 309 309 309 311 310 309 308 308 308 309 309 312 315 314 311 311 311 312 312 312 312 311 312 312 313 313 312 312 312 312 311 310 310 310 311 312 311 310 310 309 308 307 306 306
302 303 303 304 303 303 302 302 302 302 303 303 302 301 302 302 302 301 301 301 302 305 305 305 305 305 304 303 303 302 303 303 303 304 304 305 304 303 303 303 305 307 309 311 308 308 310 311 308 306 307 308 309 308 309 311 311 309 309 309 309 310 310 310 310 309 309 309 309 310 309 309 309 309 309 308 308 307 307 307 307 307 306 305 305 304 304
303 303 304 303 303 303 302 302 301 302 302 302 302 303 303 302 302 301 301 301 302 303 303 304 303 304 304 304 303 302 303 303 302 302 303 303 301 301 300 300 303 306 307 307 307 308 308 309 308 306 306 307 308 309 307 309 307 306 307 307 307 307 307 307 307 307 307 307 307 306 306 306 306 306 306 306 305 305 305 305 305 304 304 303 303 303 303
303 304 304 303 302 302 302 302 302 301 302 302 302 303 303 303 303 301 302 302 302 302 302 303 305 303 303 304 304 303 302 302 302 301 301 300 300 300 299 300 304 305 308 307 306 306 306 306 307 307 306 306 307 308 308 307 304 305 305 305 305 305 305 305 304 304 305 305 305 304 305 304 304 303 304 303 303 303 302 302 302 302 302 303 303 302 302
303 303 303 302 302 302 302 302 302 301 302 302 302 302 302 303 303 302 302 302 302 302 302 302 303 303 303 302 302 301 301 302 301 300 300 301 301 301 300 300 302 304 307 306 304 303 304 305 305 305 307 306 306 307 306 303 303 303 303 304 304 303 304 303 303 303 302 302 302 302 302 302 301 301 301 300 300 300 300 300 299 299 300 300 300 301 301
303 303 303 303 303 303 303 303 302 303 302 301 302 302 302 302 302 302 302 302 302 302 302 301 302 302 302 301 301 300 300 301 301 300 299 299 300 301 302 301 302 304 306 304 303 303 303 304 304 305 307 307 306 305 303 302 302 302 302 302 302 302 302 301 301 301 301 301 301 300 301 302 301 300 299 299 299 299 299 299 299 299 299 299 299 299 299
303 303 303 303 303 303 302 302 302 302 302 303 302 302 301 301 301 302 302 301 302 302 303 302 301 302 302 301 300 300 300 300 300 300 298 298 297 297 302 304 302 302 303 304 302 302 302 303 304 305 304 304 304 304 301 301 301 301 301 301 301 301 301 301 301 300 301 301 301 301 301 300 299 300 299 300 300 299 298 298 298 298 298 298 298 297 297
303 304 304 304 303 303 303 303 304 304 303 302 301 302 302 302 301 302 302 301 301 301 301 301 301 301 301 301 302 301 300 300 300 300 300 299 298 299 302 303 302 303 303 303 301 301 301 305 303 303 303 303 303 301 300 300 300 299 299 299 300 300 300 300 300 300 300 300 300 300 299 300 300 299 299 298 299 299 300 300 300 298 298 298 298 298 297
303 303 304 304 304 305 304 304 305 303 302 301 299 300 302 302 302 301 302 302 302 301 301 301 302 301 301 300 299 299 298 298 298 300 300 300 301 301 302 303 303 303 302 300 300 300 300 301 302 302 302 303 302 299 299 299 299 299 299 299 299 299 299 299 299 299 299 299 300 300 301 300 299 298 299 299 299 299 298 298 298 298 299 299 299 299 299
302 302 303 305 305 304 304 303 302 300 300 300 300 301 301 302 302 302 302 302 302 302 302 301 301 302 302 301 301 300 299 298 295 296 299 299 299 300 300 299 300 301 301 301 301 302 301 301 301 301 301 302 299 298 299 299 299 298 298 298 298 297 297 297 298 298 298 299 298 297 297 297 297 298 298 297 297 298 298 298 298 298 298 298 297 297 298
303 302 303 303 303 304 303 302 301 300 301 302 302 301 302 302 302 302 301 301 301 301 300 301 301 301 302 304 303 301 302 301 298 296 299 299 299 299 299 301 301 301 300 299 299 299 301 301 301 301 301 301 297 297 297 297 298 298 298 297 298 298 298 298 298 298 297 298 298 298 298 297 297 296 296 297 297 297 298 297 297 297 296 297 297 298 297
302 303 302 302 302 302 303 301 300 302 303 302 301 301 302 301 300 300 301 300 300 301 300 300 300 301 300 300 300 302 302 302 301 301 300 299 299 298 299 299 300 300 300 298 299 298 301 301 300 301 300 298 298 298 298 297 297 298 297 298 298 297 298 298 298 298 297 297 297 297 297 297 297 298 298 297 297 297 297 296 296 297 297 297 297 296 296
302 302 302 304 302 304 304 303 302 302 301 301 301 302 302 301 300 301 300 300 300 300 299 300 300 301 301 300 301 302 302 302 302 302 301 300 300 300 300 299 299 299 298 298 297 296 297 298 298 299 298 298 297 298 298 298 297 298 298 297 297 297 297 297 297 297 297 297 296 296 296 296 296 295 295 296 296 296 295 295 294 294 293 293 292 293 293
302 303 304 303 303 305 304 302 305 303 302 302 302 302 301 301 301 300 300 302 300 299 300 299 298 300 300 300 300 300 301 301 301 300 301 302 300 299 300 300 299 299 297 296 296 296 296 298 300 300 299 297 297 297 299 299 297 297 297 298 297 296 297 296 296 296 296 295 295 294 294 294 293 293 293 293 293 294 294 293 293 293 293 292 292 293 292
Wind_Speed
12 13 14 14 13 11 11 14 15 16 13 12 10 7 8 6 3 8 7 10 14 10 13 15 9 7 9 13 12 12 16 16 18 20 18 25 20 13 16 17 1 14 17 16 18 19 19 18 17 17 15 15 15 16 16 16 15 16 16 16 17 16 15 16 17 17 16 15 15 15 16 15 15 15 15 14 13 13 14 14 13 14 14 14 13 13 12
13 13 13 13 14 12 14 14 13 14 14 12 10 10 10 11 10 12 10 12 15 8 10 14 9 7 8 9 10 15 18 19 19 18 18 19 17 17 19 16 20 14 5 5 13 17 17 18 18 17 16 15 16 17 17 16 16 16 15 16 16 17 18 17 16 16 15 15 15 15 16 16 16 16 15 15 14 14 15 15 14 13 13 14 14 14 13
10 11 12 11 11 11 14 15 14 15 15 13 12 11 10 10 10 13 7 9 11 4 6 7 7 6 6 12 17 16 13 16 17 17 18 18 17 18 19 19 16 13 14 15 13 8 3 1 9 15 14 14 15 15 14 13 13 13 16 15 14 16 17 15 14 14 14 15 15 16 17 16 16 16 16 15 14 14 14 14 14 13 11 13 14 14 14
9 9 11 12 11 12 14 15 14 12 12 13 8 7 5 5 7 11 11 9 7 3 5 6 7 10 12 13 14 12 12 14 14 16 17 17 17 16 16 15 15 16 16 13 9 6 6 8 10 9 6 6 6 4 4 7 9 9 12 13 15 15 14 12 14 15 15 15 16 16 16 16 16 16 14 14 15 14 14 15 14 12 13 12 13 14 13
8 11 13 14 14 12 11 10 9 9 11 12 13 12 12 11 10 12 9 9 3 6 5 5 5 7 10 12 11 11 13 12 12 14 15 15 15 15 15 14 14 15 14 14 12 4 1 3 5 8 7 6 2 10 9 9 10 11 10 9 13 14 14 14 15 15 15 16 16 16 16 16 15 14 14 14 15 14 15 15 14 14 14 12 11 13 14
8 11 14 13 9 9 7 4 7 6 8 7 11 10 9 9 9 7 9 11 9 10 13 11 2 6 6 9 11 14 11 10 12 13 13 13 13 14 14 14 14 13 12 12 12 13 3 1 2 4 5 6 5 4 7 8 10 9 8 1 14 13 13 15 15 15 15 16 16 16 15 14 14 15 15 15 15 14 13 13 15 15 14 14 11 12 13
7 7 9 9 10 9 7 11 11 12 12 13 10 11 11 11 10 11 14 12 8 8 7 11 13 10 10 15 17 16 15 13 12 12 13 15 15 14 14 15 14 13 11 9 11 14 16 13 5 1 3 5 5 2 2 9 9 10 10 12 13 7 13 13 14 15 16 16 16 15 15 15 15 16 16 14 14 13 13 13 15 15 15 15 13 11 12
4 5 4 5 9 6 9 11 13 15 16 6 9 11 7 8 9 11 10 8 7 7 9 8 6 1 3 11 15 16 16 16 13 13 13 14 15 16 14 14 13 13 13 12 13 12 12 12 10 6 4 5 4 7 8 8 10 11 10 12 15 13 15 16 17 17 17 17 16 15 15 15 16 16 16 16 15 13 12 11 11 12 12 13 14 13 11
7 5 4 8 8 13 12 9 8 4 2 4 3 3 4 10 10 13 10 11 11 10 10 10 10 6 1 5 8 14 17 16 13 13 12 14 14 15 14 15 15 13 13 13 12 12 12 12 12 10 7 3 5 12 15 14 14 14 14 15 16 18 18 18 18 19 19 18 17 17 16 16 17 17 16 16 14 11 11 11 12 13 13 13 12 13 12
6 6 4 3 3 6 8 7 7 4 3 0 0 1 3 8 11 11 11 11 11 12 11 12 11 7 2 5 5 11 13 14 14 12 13 13 14 14 15 15 15 15 15 14 13 12 12 12 11 9 10 10 9 4 5 12 16 16 16 17 18 16 15 15 17 18 18 19 18 18 17 18 18 16 15 14 14 12 12 13 13 13 12 12 12 12 13
3 5 6 4 4 9 7 4 2 5 4 4 3 2 7 3 8 9 10 11 11 11 12 12 10 7 5 4 5 8 10 12 12 12 14 14 13 14 14 15 16 16 15 15 14 12 12 13 13 12 13 12 11 10 7 6 14 18 19 18 18 18 17 16 17 17 18 18 18 18 18 18 16 16 16 15 13 12 12 11 11 10 11 11 11 11 12
6 7 5 8 5 4 5 8 10 11 9 7 4 7 3 4 6 8 9 11 12 13 12 10 8 9 5 6 6 9 9 10 12 12 13 14 15 16 16 15 15 13 12 14 15 14 14 14 14 14 14 11 10 10 11 10 9 14 18 19 19 17 15 15 15 16 16 18 18 18 18 17 15 15 13 12 14 14 13 11 10 10 11 12 13 12 11
6 9 8 6 7 2 2 6 11 10 10 3 1 7 2 4 6 4 4 6 9 11 11 9 7 8 6 4 6 7 8 11 11 11 10 9 11 14 16 17 18 16 13 11 13 14 12 13 14 14 13 11 11 10 11 11 12 12 14 16 16 15 15 16 16 17 16 17 19 18 17 15 15 13 13 14 14 14 14 13 11 10 12 12 13 12 12
6 7 9 9 4 1 5 8 7 4 3 5 5 1 3 5 6 4 3 3 4 6 7 8 8 8 11 10 3 6 8 8 7 10 12 12 12 13 12 15 16 17 17 15 14 14 13 15 15 14 13 12 11 12 12 13 14 14 13 13 12 14 14 16 16 16 17 16 16 15 14 13 13 14 13 13 13 14 13 13 14 13 11 11 12 12 11
2 3 8 5 8 1 11 13 4 5 1 2 2 6 5 5 4 5 4 4 2 3 4 8 9 11 12 12 8 4 6 7 9 10 12 13 14 13 15 15 16 16 15 16 16 15 14 14 14 14 14 14 13 12 14 16 15 14 13 10 13 14 14 14 15 15 15 16 15 12 12 14 15 14 12 13 13 13 13 13 14 14 12 11 11 11 11
4 3 5 3 2 6 8 8 3 2 3 6 7 6 7 4 5 5 3 3 3 3 3 5 6 8 10 11 11 5 5 4 7 9 10 11 11 12 12 14 16 18 14 13 15 15 15 14 14 13 12 13 14 14 17 16 14 14 11 10 11 12 13 15 15 15 15 15 15 13 14 14 14 13 13 13 12 12 13 13 13 13 12 10 10 12 12
2 3 4 6 7 6 7 9 10 6 7 5 7 8 7 7 5 4 5 4 3 4 5 6 6 7 7 11 14 7 2 5 7 9 10 10 12 13 13 15 16 15 16 18 17 17 16 16 13 12 11 13 16 18 18 16 15 13 12 11 11 13 14 14 15 14 14 14 14 14 13 14 13 13 14 13 12 12 12 13 13 13 12 12 11 11 11
4 11 14 8 3 5 9 9 6 7 7 5 6 7 8 8 6 5 6 7 6 5 4 6 6 6 7 10 10 12 3 6 4 6 8 10 12 13 14 14 18 17 17 17 17 18 18 17 15 14 14 14 15 16 19 17 15 13 14 12 12 14 14 15 15 15 14 14 14 13 13 12 13 13 13 13 13 11 12 13 13 13 13 12 12 11 11
4 3 2 5 8 8 11 9 3 4 3 4 4 7 7 9 9 7 6 7 8 7 5 6 7 8 8 8 10 10 2 4 3 5 7 9 11 12 13 13 14 14 16 16 18 20 20 18 16 16 16 15 14 15 15 17 12 13 13 13 13 13 14 14 14 14 14 12 12 12 12 11 11 12 12 12 13 12 12 13 14 13 13 13 13 13 12
5 6 8 6 10 12 10 1 8 8 9 10 9 8 9 10 11 9 8 8 9 7 6 5 6 7 7 7 9 11 6 3 2 3 3 6 10 11 10 11 12 13 14 15 17 19 17 16 17 17 16 16 17 18 17 14 15 10 12 13 14 14 16 14 13 13 13 16 15 11 11 12 11 12 12 13 13 14 15 15 15 14 14 14 14 14 13
7 11 4 10 14 10 2 7 10 9 9 10 11 11 11 12 12 10 10 10 10 9 9 9 8 8 6 6 7 10 6 2 2 1 3 5 7 10 12 13 13 12 13 15 16 17 16 15 16 17 18 16 15 18 17 16 14 11 9 14 14 15 14 13 12 12 13 12 12 11 10 11 11 11 13 12 12 12 13 12 13 14 15 14 14 14 13
6 1 4 8 8 9 10 10 11 13 13 13 13 12 11 11 11 9 10 10 10 10 9 10 10 9 7 7 7 10 6 2 1 2 2 4 7 9 9 10 11 12 13 13 16 16 14 15 16 16 17 17 17 15 17 16 15 12 8 6 12 13 14 13 12 12 11 11 11 11 12 12 11 9 3 4 10 13 13 17 19 19 15 14 14 13 13
5 2 4 2 6 10 10 13 14 13 13 13 13 12 12 11 11 11 11 11 11 9 9 9 10 10 8 7 7 9 6 2 1 2 2 3 5 8 10 11 11 12 12 14 15 15 14 16 16 16 15 16 17 17 18 17 15 12 8 6 3 9 12 11 12 13 12 11 11 11 12 11 11 11 7 4 4 3 7 13 18 19 18 17 14 14 12
8 6 3 4 6 8 11 12 12 12 11 11 11 10 10 11 12 12 12 12 12 11 9 10 10 11 9 8 8 9 8 1 1 1 1 2 3 6 7 8 10 10 11 15 15 15 14 14 15 15 16 16 17 17 18 18 16 12 8 4 5 5 2 7 9 8 4 2 4 9 10 10 10 9 9 9 5 8 13 7 17 18 16 16 16 17 15
6 3 4 6 7 9 9 9 10 11 12 10 9 10 10 11 11 11 12 12 12 13 11 10 10 9 9 9 8 8 8 4 1 1 1 2 5 5 5 10 10 9 10 10 11 12 12 15 15 15 15 16 17 16 18 18 17 14 8 5 1 1 1 1 4 9 9 9 5 1 6 11 11 10 11 11 12 7 6 14 12 8 6 4 5 7 10
7 6 6 6 7 6 6 10 10 9 11 12 13 11 11 13 13 13 12 11 12 12 12 12 12 11 10 9 8 9 9 7 2 1 1 2 4 4 5 8 10 8 9 9 11 12 14 14 14 14 15 16 17 17 17 17 17 16 8 6 8 6 2 0 0 1 5 9 9 9 7 8 10 11 11 11 10 7 6 4 6 9 13 14 12 11 11
6 5 6 6 4 6 6 9 9 12 12 12 12 13 13 11 13 12 11 11 12 12 13 13 12 12 10 8 9 9 9 6 4 2 0 2 3 3 4 5 9 9 9 10 10 13 15 14 14 14 14 16 17 17 17 17 16 14 11 7 4 9 16 10 7 5 3 2 2 4 6 5 4 6 10 10 10 10 10 11 9 7 6 4 10 12 6
6 5 3 2 5 6 9 10 8 9 10 11 12 13 12 11 11 11 13 13 13 12 13 14 13 12 11 9 9 9 9 8 5 1 0 3 3 2 2 5 6 7 7 10 10 11 12 12 13 13 14 15 16 16 17 17 16 14 9 7 9 9 9 9 6 2 3 4 5 4 3 2 2 3 8 8 10 11 10 9 8 8 5 3 2 3 9
7 5 5 3 4 2 6 6 8 8 9 11 12 11 12 11 10 10 11 10 11 13 13 11 11 12 11 9 8 9 8 6 3 1 1 3 1 2 4 5 5 5 7 8 9 10 10 11 12 14 15 16 16 16 16 17 15 12 9 5 6 6 6 5 1 3 4 5 5 5 4 4 5 4 5 10 8 5 7 8 10 8 7 6 5 5 6
6 4 5 6 2 1 4 7 9 9 9 12 12 12 11 11 10 9 9 10 11 12 11 8 7 9 9 9 8 7 7 5 1 0 2 1 2 3 4 5 4 6 7 8 10 11 11 11 12 13 14 16 16 16 16 16 14 12 10 7 6 6 4 4 3 4 5 6 6 9 9 9 8 9 9 9 11 11 8 6 7 6 4 2 3 5 5
3 7 4 2 2 1 3 5 7 6 8 11 12 11 11 10 10 10 10 11 11 11 9 7 5 7 9 9 9 7 4 3 3 1 1 2 3 3 4 7 7 7 8 9 9 10 11 11 10 12 13 14 15 16 16 16 13 12 10 9 8 11 14 9 8 7 6 6 7 7 7 7 6 8 11 9 6 8 4 2 9 9 7 5 4 5 4
2 1 2 0 1 1 1 4 5 7 8 9 11 12 12 12 13 12 11 11 10 10 10 8 4 4 7 7 7 4 3 3 3 1 1 3 4 4 6 7 8 8 9 10 10 9 9 11 10 12 13 13 14 14 15 15 15 13 12 10 9 8 11 15 9 8 6 7 8 8 7 8 8 6 6 9 10 9 9 5 6 7 8 7 6 5 2
2 2 0 1 2 2 2 2 6 8 8 9 9 9 10 10 10 10 11 10 10 9 8 7 5 2 2 3 4 5 5 5 3 2 4 5 5 5 5 7 7 6 7 8 9 9 9 11 12 12 13 13 13 14 14 15 13 12 11 11 10 10 10 11 10 9 10 10 9 8 9 10 10 10 8 5 3 8 10 9 8 9 8 7 7 5 4
1 0 0 3 1 1 3 4 4 5 6 6 8 9 10 11 10 10 10 11 11 10 8 8 5 3 2 1 2 2 4 2 6 6 4 5 4 6 7 7 6 5 5 6 9 9 9 10 11 11 13 13 13 13 13 14 12 11 11 10 10 11 12 10 11 9 9 10 9 11 12 12 11 10 11 7 4 7 10 10 9 9 9 9 9 8 11
2 1 1 3 4 3 1 2 3 4 7 8 9 9 9 10 11 11 14 12 12 10 8 5 6 5 6 3 2 2 4 7 8 6 6 6 7 8 8 7 6 5 6 7 9 9 9 9 10 12 12 13 13 12 13 14 11 10 10 10 10 10 10 10 11 11 10 10 10 10 11 12 10 10 10 8 8 9 10 10 10 10 11 11 9 10 12
1 0 1 2 3 4 1 0 2 3 5 6 8 9 10 11 14 13 14 13 11 10 7 7 8 9 9 7 8 8 8 7 8 8 9 9 8 7 8 8 8 7 7 7 8 8 9 9 16 19 11 11 12 13 14 14 11 10 9 9 8 9 9 9 10 11 11 11 12 11 11 13 12 8 7 9 10 11 10 10 10 10 11 11 10 9 9
1 2 2 1 2 3 3 0 1 3 4 5 7 9 10 12 13 13 12 13 12 11 9 8 10 11 10 9 9 8 8 8 8 8 8 7 7 8 8 8 9 9 9 8 9 8 8 10 17 20 12 9 11 12 14 22 11 9 9 9 8 8 8 10 10 10 10 9 10 10 11 11 10 10 9 10 12 11 12 12 12 12 11 10 10 9 10
2 2 1 2 2 2 4 2 1 2 3 5 6 7 9 10 11 11 12 13 13 12 11 10 10 9 9 10 11 11 10 9 8 8 8 8 8 9 10 10 9 8 8 7 6 7 8 12 18 12 8 9 9 10 13 21 18 11 9 9 8 9 9 8 10 10 9 9 9 10 9 10 10 9 9 10 12 13 13 12 11 11 10 10 9 9 9
3 1 3 2 1 2 3 3 2 2 3 5 5 6 8 10 11 11 12 13 13 12 11 10 9 11 11 11 11 11 11 10 9 9 8 9 9 10 9 9 9 9 7 6 7 7 9 12 10 9 9 9 10 10 12 16 15 9 9 9 10 10 10 9 9 9 9 9 8 8 9 10 10 10 9 10 10 10 11 13 11 10 10 9 9 9 9
3 2 2 1 2 2 3 3 3 3 3 4 5 6 7 8 9 10 11 12 12 12 10 10 10 9 11 11 10 10 9 10 10 11 10 9 9 9 8 9 11 9 9 13 9 7 12 17 11 8 8 8 9 9 9 13 12 8 7 8 8 8 10 11 10 9 9 9 10 11 10 10 10 10 10 10 10 10 9 9 10 10 10 10 10 10 10
3 2 1 1 1 2 3 2 4 4 4 5 5 5 6 6 7 9 10 10 10 11 12 11 11 10 10 10 10 10 10 11 12 12 10 9 9 7 9 9 10 9 9 10 9 9 12 11 9 8 8 8 7 10 8 13 9 7 8 8 9 9 9 9 10 10 9 10 10 10 9 9 10 11 9 9 9 10 11 10 8 10 9 9 9 9 9
3 2 2 3 3 3 4 4 4 4 4 4 5 5 6 6 7 8 8 8 9 10 11 12 16 13 10 9 8 8 9 10 10 11 11 11 10 8 8 7 9 8 13 13 12 11 9 8 9 10 8 8 9 16 15 10 8 8 8 8 9 10 10 10 10 10 10 10 9 9 9 9 10 9 9 10 10 10 11 11 10 9 9 10 10 9 9
3 3 3 3 3 4 4 4 3 3 5 5 5 5 5 6 7 7 8 9 10 10 11 10 11 13 12 10 8 8 8 7 8 8 9 10 10 9 8 7 7 9 16 10 10 7 8 8 8 8 15 12 11 17 16 10 9 9 8 9 10 10 10 10 9 9 10 10 9 10 10 9 10 9 10 10 10 10 11 11 10 10 9 9 9 9 9
4 3 3 3 3 3 3 3 3 2 2 6 5 5 6 6 7 8 8 9 9 10 9 9 10 10 11 11 10 9 9 7 6 5 6 7 7 9 9 8 7 11 17 10 9 9 8 8 8 14 19 20 20 18 10 9 9 10 10 9 10 10 10 10 10 9 9 9 9 10 11 11 10 10 10 9 9 10 11 11 10 10 9 10 9 9 8
4 3 4 4 4 3 3 2 2 2 3 6 6 6 6 6 7 7 8 8 9 10 9 9 8 8 7 7 8 8 7 8 8 7 7 7 8 9 9 11 11 10 12 13 8 9 7 9 15 21 18 20 19 16 9 9 10 10 10 10 11 10 9 10 10 10 10 10 10 10 10 9 9 9 9 10 11 10 10 11 11 9 10 10 10 10 9
6 5 4 5 3 2 3 2 2 2 3 5 7 7 6 6 6 6 7 8 8 8 8 8 8 9 8 8 6 6 6 7 7 8 8 8 8 7 8 10 9 13 17 16 10 9 9 19 20 19 20 20 17 11 9 9 9 9 10 11 11 11 10 10 10 9 9 9 9 9 9 8 9 8 9 9 10 10 11 12 10 9 10 10 9 9 10
6 4 3 2 2 2 3 3 2 3 3 5 6 5 5 6 6 6 6 7 7 8 8 8 9 8 9 9 9 7 7 6 7 7 7 7 8 9 11 14 14 16 14 11 11 11 11 13 16 20 19 19 16 9 10 10 10 9 9 10 10 10 10 10 10 9 9 8 10 11 12 10 9 9 10 10 10 10 10 10 10 10 10 11 11 11 11
7 5 2 2 2 3 3 3 2 2 3 5 5 5 5 6 6 6 6 5 6 6 7 7 7 7 7 8 8 8 7 6 6 7 6 6 6 6 7 7 10 15 15 14 16 17 22 20 20 19 20 18 11 10 10 9 10 10 10 10 10 9 10 9 9 9 9 10 10 9 9 9 10 10 10 10 10 10 9 10 10 9 8 9 10 10 11
4 5 5 4 3 3 2 2 2 2 3 6 6 5 5 6 6 5 5 4 4 4 5 5 6 6 6 7 7 5 5 5 5 6 6 7 7 7 8 11 16 16 11 9 10 10 17 19 19 19 19 15 10 10 10 10 10 10 10 10 9 9 9 8 8 8 9 10 10 10 9 10 9 9 10 10 10 10 10 10 10 10 10 11 11 10 10
5 4 4 3 3 2 1 1 1 1 5 6 5 5 4 5 5 4 3 4 4 5 4 4 4 4 4 4 4 4 3 3 5 6 7 8 8 8 9 9 11 16 14 9 9 10 14 19 17 18 14 10 10 10 9 10 10 10 9 11 10 9 10 11 12 12 9 10 10 10 10 10 10 12 11 10 10 10 11 11 11 14 19 13 10 10 9
5 4 4 3 4 3 2 1 2 4 6 6 5 5 4 4 5 6 5 4 3 4 3 3 3 3 3 2 2 1 2 3 5 7 6 7 8 11 12 10 11 11 11 11 9 9 8 9 9 10 11 11 10 10 10 10 9 11 11 10 11 10 10 11 9 9 9 10 9 10 10 9 9 9 9 9 10 10 10 10 10 9 9 10 10 9 9
5 3 2 3 3 3 2 3 2 3 6 5 4 4 5 5 6 5 5 6 4 3 2 1 2 2 2 3 5 4 5 7 6 6 6 6 6 5 8 10 8 9 10 9 9 9 9 9 12 14 13 10 9 9 12 14 11 10 11 11 11 11 11 10 10 10 10 11 10 10 12 11 11 11 11 11 11 10 10 10 10 9 10 9 9 9 9
Wind_Direction
281 284 286 295 297 296 305 304 303 305 322 329 322 324 320 323 254 272 316 310 296 319 322 310 338 26 22 23 33 19 7 14 34 31 30 51 43 14 35 36 200 176 171 175 179 177 179 179 180 184 187 188 190 192 194 193 194 195 193 193 195 197 198 195 196 195 194 195 197 198 198 197 199 199 199 200 198 195 196 200 201 200 195 192 191 194 196
269 277 289 294 295 299 295 286 292 300 303 302 304 305 307 310 305 296 312 298 292 317 317 325 348 15 10 35 41 33 13 19 27 25 28 36 42 36 35 41 49 28 2 207 189 182 181 179 181 186 186 188 190 192 195 193 195 196 193 195 196 198 201 200 195 191 191 193 195 196 197 198 200 199 198 198 197 195 195 198 199 200 196 193 191 192 193
308 310 298 286 287 293 288 287 283 286 290 295 298 301 295 289 278 282 279 290 299 330 308 345 17 0 19 33 39 36 22 18 23 25 25 22 25 30 31 36 32 27 39 43 33 15 354 230 200 190 190 190 191 193 196 198 198 192 193 197 201 203 206 200 191 188 190 194 194 196 198 199 199 200 198 196 197 195 193 195 197 199 197 193 193 192 193
291 283 287 289 288 280 272 276 276 277 287 286 280 270 276 274 280 294 302 290 286 330 330 1 12 27 32 36 35 31 36 20 22 30 22 18 16 19 26 27 23 24 26 24 29 43 69 65 48 31 36 84 117 165 194 210 210 200 194 203 207 207 209 199 191 189 191 192 195 198 197 200 200 200 200 197 197 194 192 193 195 196 199 196 193 191 193
293 302 304 302 301 296 278 268 288 287 270 267 273 268 270 270 291 296 301 276 305 320 342 26 10 43 42 36 28 33 31 22 24 27 21 19 12 11 15 16 20 20 15 9 0 32 344 66 98 90 74 353 176 159 148 115 67 15 330 259 220 211 212 204 196 193 189 192 196 198 200 199 199 199 201 201 199 196 194 192 190 194 200 194 194 193 192
277 291 302 308 309 276 263 268 251 265 273 273 269 271 269 266 253 282 292 288 308 337 340 336 10 51 54 55 51 43 31 18 16 23 22 15 12 9 7 6 9 10 6 1 348 349 31 258 181 150 148 152 237 232 157 127 136 162 173 327 332 296 232 205 199 192 191 194 197 200 198 197 196 199 202 204 202 199 195 190 191 195 195 197 191 193 194
270 282 285 277 261 260 284 299 306 301 308 319 349 342 338 354 334 284 274 302 359 35 26 3 357 6 54 55 44 32 26 27 21 16 16 6 9 7 1 358 357 360 1 352 350 347 345 347 316 299 254 202 165 95 44 145 165 177 193 182 187 221 303 280 204 193 193 195 198 198 197 197 197 200 203 205 204 201 196 193 193 194 194 196 195 191 193
282 275 245 266 254 268 277 285 298 302 294 316 359 313 314 30 19 6 1 13 360 28 22 5 350 335 67 68 48 26 18 20 19 15 13 6 5 358 357 351 347 344 354 355 350 337 320 326 334 313 256 230 196 149 202 196 184 195 201 189 193 191 193 221 228 198 193 194 195 195 196 196 198 200 202 203 203 201 199 195 196 194 198 197 196 193 189
240 226 244 257 299 291 278 280 268 282 341 26 55 306 303 36 17 11 350 5 11 9 9 354 339 322 97 101 39 25 7 8 16 17 13 5 3 351 347 349 341 343 343 343 335 328 325 321 318 314 318 295 220 209 201 195 192 199 202 202 207 209 208 202 208 198 192 192 192 193 194 196 199 200 200 202 202 200 201 197 191 195 196 197 196 197 194
203 244 259 291 316 274 267 240 266 38 357 124 299 237 265 46 11 9 355 8 6 360 353 8 346 312 331 36 8 15 359 6 6 10 13 6 358 351 345 342 343 340 335 331 332 326 316 313 308 311 319 317 302 256 229 188 192 202 206 208 209 209 213 213 210 199 193 190 191 192 193 198 199 199 199 199 201 197 201 198 196 195 194 197 197 199 199
243 214 221 225 230 244 252 301 11 21 332 34 335 295 269 47 5 15 3 5 9 359 0 358 6 37 34 320 5 358 1 8 6 10 8 2 351 349 346 342 338 335 329 326 325 326 325 319 321 321 317 311 307 299 265 199 191 199 204 210 210 211 212 211 211 202 194 191 190 191 195 199 196 196 196 197 197 198 203 203 201 191 191 196 198 199 201
240 254 239 236 214 255 356 356 353 333 322 329 316 269 260 351 341 15 18 7 6 0 355 355 21 33 6 340 349 353 7 14 4 14 7 356 350 347 344 339 336 327 326 327 331 330 323 314 311 307 305 301 297 290 284 262 209 203 207 207 210 209 208 211 208 199 195 191 191 192 195 195 195 196 193 192 196 199 202 203 201 195 190 195 197 200 198
238 235 251 266 263 282 20 341 340 323 317 328 310 245 324 323 319 355 17 26 14 359 348 0 4 357 340 358 3 340 8 16 8 8 6 359 344 343 344 337 333 332 330 328 322 317 313 308 307 305 301 299 289 282 278 276 259 234 218 212 206 201 201 205 202 197 194 191 191 193 193 192 192 192 192 194 194 196 200 202 203 201 195 194 197 199 199
260 243 243 240 280 99 331 339 317 344 336 222 227 20 234 268 305 350 351 7 28 358 357 347 338 332 330 336 327 349 20 13 9 2 356 348 346 351 344 334 332 331 327 324 323 319 316 311 306 301 299 290 280 276 274 268 261 254 240 214 200 192 191 197 197 194 193 192 191 189 188 184 187 194 196 194 193 195 198 200 202 204 200 194 196 198 200
251 211 250 244 244 10 350 334 335 43 34 269 304 278 293 291 312 329 343 335 7 4 2 346 333 329 330 326 330 347 35 17 13 2 357 352 349 346 343 336 330 329 325 321 321 317 313 312 304 297 291 284 280 276 267 263 266 258 243 215 194 195 193 190 191 192 192 186 186 186 186 185 187 192 191 194 195 194 196 199 202 203 201 197 195 197 197
319 295 242 227 73 290 330 350 286 328 275 278 288 311 299 326 318 307 326 314 331 339 343 331 327 322 320 323 328 345 33 29 21 8 357 347 342 341 340 332 329 328 321 318 318 318 319 314 308 300 298 300 298 291 277 268 261 257 236 208 201 194 189 191 189 188 187 185 184 187 183 181 186 188 190 194 194 196 196 198 200 202 203 200 197 197 197
241 293 290 280 290 324 328 309 289 270 268 272 288 305 308 305 305 305 303 309 319 327 327 324 319 314 319 322 322 335 16 49 26 9 352 345 338 335 336 329 328 329 329 326 322 322 324 320 315 316 315 315 314 305 294 274 257 247 228 214 200 201 196 189 187 186 183 182 185 184 181 179 184 189 191 189 195 198 196 199 200 202 204 201 202 199 198
246 250 248 287 324 354 332 290 315 308 302 311 329 310 306 304 302 320 312 316 318 312 309 313 312 307 310 315 320 322 16 68 35 4 351 347 339 334 333 335 339 333 331 326 326 331 332 331 333 334 328 325 316 308 309 287 251 233 218 212 205 200 196 192 188 182 179 182 181 181 178 182 186 189 189 191 198 197 199 201 202 202 203 203 205 205 202
336 284 106 318 357 336 308 312 331 292 317 294 299 303 293 294 304 307 305 305 306 302 299 285 287 298 313 311 313 310 358 75 46 22 2 347 334 330 328 323 326 332 338 334 336 337 335 335 336 334 330 326 321 316 312 319 279 223 212 204 200 198 192 188 183 177 176 178 177 180 180 182 187 188 192 196 199 199 199 202 203 204 202 202 206 206 207
261 267 297 345 337 315 290 55 349 343 334 328 324 317 306 304 304 303 300 299 287 288 274 268 275 288 299 314 313 313 318 71 30 33 7 348 330 325 318 322 332 334 337 341 338 336 333 335 337 333 329 327 330 325 319 318 322 261 211 203 196 194 188 181 178 177 177 174 172 178 183 184 187 191 196 200 202 203 200 200 200 201 200 203 205 203 206
269 270 292 356 320 292 264 4 341 320 317 319 311 310 315 309 300 303 314 307 301 301 304 303 289 281 287 300 304 300 311 71 350 15 5 346 331 320 329 333 339 340 333 339 340 335 333 334 337 335 330 328 330 333 328 328 326 309 231 199 196 189 183 176 176 174 172 172 176 178 182 188 192 194 197 205 209 211 209 205 207 201 200 203 203 204 201
276 301 335 348 333 318 312 318 321 318 313 309 307 306 301 304 303 305 303 299 299 300 298 298 294 287 283 285 289 293 300 143 279 300 331 340 329 319 325 326 329 341 340 343 342 339 337 339 339 337 335 333 329 332 333 331 332 327 324 228 190 182 178 176 173 172 171 171 175 179 185 189 192 197 202 204 208 207 207 210 209 209 206 206 202 197 201
261 311 312 310 288 284 281 299 309 307 306 298 292 290 294 295 299 301 295 292 289 282 283 284 290 288 282 280 288 288 280 176 190 215 291 330 328 330 327 324 330 347 346 346 342 342 344 345 341 337 332 336 333 335 336 332 332 328 331 349 263 187 174 177 171 175 174 175 178 184 186 188 195 191 193 176 44 347 267 214 203 208 203 210 206 203 201
265 267 260 266 271 288 297 302 299 298 291 284 284 293 295 293 294 296 295 292 291 288 282 279 275 279 280 281 283 280 292 209 187 208 232 276 301 313 322 321 319 335 356 353 346 342 341 342 342 335 332 334 339 337 338 331 330 328 331 1 47 355 6 125 111 106 104 119 176 185 186 191 193 187 185 193 236 10 12 288 202 193 199 193 190 190 193
241 236 260 268 274 281 284 290 293 291 294 300 299 291 295 297 294 290 288 287 285 287 285 278 276 275 278 274 272 279 282 265 211 266 304 304 302 304 320 328 324 340 354 349 342 341 341 345 339 336 335 337 339 337 339 335 331 326 326 329 354 119 115 332 135 141 148 150 134 170 215 194 195 187 189 197 200 191 30 35 45 76 97 112 149 178 186
235 257 260 270 277 284 300 304 304 317 319 317 308 302 297 293 288 288 286 287 285 281 279 275 274 269 263 263 268 274 276 274 257 271 193 259 293 301 328 325 323 333 343 350 353 343 346 346 340 333 335 339 337 339 335 332 333 326 326 337 332 324 323 178 236 178 182 167 166 159 190 233 210 190 196 198 195 167 125 99 70 50 48 44 46 75 65
224 232 271 286 290 308 316 320 314 319 315 315 309 306 300 286 285 283 282 278 278 278 273 270 263 261 259 257 262 262 258 271 274 239 163 268 287 306 312 301 329 336 349 345 356 349 347 346 344 338 336 342 338 337 333 333 336 331 340 354 18 344 338 343 347 358 342 308 199 163 170 171 268 237 199 192 180 165 171 172 168 147 133 60 26 27 68
205 202 214 262 312 312 319 316 316 313 318 318 317 311 301 297 288 283 279 280 276 272 266 253 251 250 250 242 245 255 259 248 233 177 245 293 281 289 294 318 322 346 348 348 352 352 346 343 341 340 342 344 340 335 337 336 334 328 321 7 28 23 358 354 337 19 21 24 29 24 352 296 147 336 277 223 188 177 171 159 146 133 121 79 67 59 73
200 192 201 229 254 283 302 308 313 317 325 317 313 307 307 306 303 294 288 284 286 287 282 263 234 234 232 230 232 242 244 240 212 158 273 267 314 1 325 332 333 354 4 350 345 353 343 339 342 346 346 344 337 336 336 335 325 321 325 357 46 67 29 352 22 89 60 73 69 51 41 29 2 7 312 269 247 165 149 156 156 156 136 143 136 92 62
177 179 179 229 234 322 336 345 327 323 337 322 321 319 316 319 317 310 304 296 294 288 286 282 233 220 213 222 232 236 236 221 175 116 276 325 76 25 5 352 3 11 3 9 357 345 345 341 345 348 348 340 335 334 336 330 318 326 345 345 32 35 61 69 59 55 64 61 47 52 61 77 79 72 71 45 42 46 48 49 49 76 99 158 128 122 113
133 184 210 203 247 263 25 355 321 323 331 323 330 326 327 322 324 315 309 306 294 292 300 301 273 224 206 216 225 226 200 154 151 192 216 93 85 58 40 31 22 14 11 1 352 348 341 335 346 349 345 340 333 334 336 329 327 337 349 11 33 34 31 36 72 74 67 69 62 55 70 84 86 100 98 88 81 99 79 108 120 113 100 59 53 73 79
328 135 115 175 276 289 334 333 336 335 341 336 336 340 336 332 330 324 310 299 303 314 312 317 306 235 219 213 216 210 209 159 146 210 149 107 85 72 68 50 34 26 21 5 357 351 342 333 349 350 341 342 336 337 337 335 337 346 356 359 12 22 26 29 48 60 83 77 80 74 69 70 63 53 86 130 162 159 150 144 94 82 90 98 86 67 82
335 313 313 294 326 318 292 327 4 345 339 342 336 332 327 329 323 316 304 315 324 321 320 324 329 350 297 209 189 173 212 166 166 93 78 65 60 57 57 60 53 48 28 12 358 349 349 345 341 351 346 347 343 340 338 337 338 346 351 2 7 16 22 26 38 72 82 83 82 88 75 70 70 80 66 22 49 95 95 95 101 97 84 72 67 45 8
310 177 193 167 188 249 316 332 347 349 337 339 337 336 344 330 324 321 329 339 337 336 328 314 319 329 310 96 111 146 226 168 87 77 64 63 49 52 46 51 56 49 45 15 1 358 353 347 341 354 351 348 353 346 340 340 342 345 353 4 14 17 22 21 22 38 52 65 72 80 82 77 70 78 83 79 75 97 100 106 102 96 90 79 71 69 60
94 10 98 142 159 152 85 326 313 6 353 351 350 345 343 327 339 338 352 355 344 321 315 353 28 18 34 49 134 156 90 90 89 81 66 50 47 42 42 36 32 34 26 24 13 3 350 341 352 356 357 351 352 351 346 344 346 347 353 6 18 28 28 22 26 35 38 41 43 52 67 74 75 75 88 108 118 107 98 92 90 90 89 85 79 70 63
89 275 352 105 133 135 135 356 351 6 13 1 351 340 345 343 344 350 356 351 338 343 353 26 45 43 38 44 71 75 78 76 79 69 63 54 43 42 40 35 22 18 18 23 20 5 352 351 8 11 7 358 351 346 352 356 350 348 354 8 22 28 34 36 36 40 40 44 44 42 47 57 62 61 84 99 90 80 77 74 70 69 72 69 66 59 56
78 26 14 88 109 118 130 144 14 6 5 4 5 351 349 351 352 354 355 355 355 359 8 36 48 51 40 32 48 53 64 69 69 67 64 52 48 48 37 30 22 17 16 22 14 6 360 4 12 13 12 3 358 343 350 0 357 351 354 8 23 35 42 41 38 41 39 48 57 51 54 58 57 60 57 64 73 72 75 75 71 68 65 65 62 59 59
72 57 351 60 28 98 130 145 89 27 18 22 15 3 354 351 355 360 3 0 359 1 13 34 52 55 53 48 48 44 40 42 60 72 69 61 51 51 40 26 16 3 11 22 15 13 7 17 13 7 8 6 359 345 351 1 7 6 7 8 16 36 46 47 46 46 43 43 50 62 65 70 66 56 53 60 67 70 76 76 73 71 69 68 67 65 65
107 97 43 356 5 78 100 118 112 65 34 30 15 11 4 1 2 6 10 6 1 2 14 25 42 54 52 51 50 45 39 34 40 46 54 57 55 50 41 26 9 359 348 12 20 17 18 23 18 6 7 3 357 353 354 6 8 10 8 11 21 37 40 48 46 48 48 45 48 54 59 62 66 66 61 56 60 64 64 67 70 74 73 75 71 65 62
108 81 66 333 11 59 85 86 92 83 76 53 29 19 5 13 9 11 13 11 6 5 14 25 33 47 55 55 53 48 42 42 43 42 40 44 46 44 41 29 12 354 6 18 18 18 24 29 31 17 5 5 4 0 1 10 12 13 15 23 24 35 46 46 47 48 44 48 52 50 54 60 67 65 63 64 62 60 59 62 69 70 70 69 69 70 71
113 140 158 115 37 59 80 72 80 82 75 64 38 22 20 23 16 19 17 13 5 9 15 27 36 37 43 55 56 53 50 47 46 45 42 44 39 35 35 26 5 357 12 22 20 20 23 26 36 33 21 14 7 24 14 12 12 9 22 29 34 34 39 48 52 47 44 44 49 50 48 45 54 59 56 59 61 63 62 61 60 61 62 67 71 74 75
125 117 93 81 51 33 49 59 63 69 79 71 57 44 32 27 31 29 18 14 18 18 19 26 38 40 35 37 49 58 58 54 52 53 49 48 40 33 34 25 5 2 23 27 21 16 17 16 29 42 43 28 30 39 36 21 13 17 21 24 36 41 44 46 47 48 48 49 47 51 55 56 58 60 58 64 61 60 62 61 59 58 61 66 68 67 73
127 119 103 84 77 64 62 63 50 54 87 93 81 62 44 33 34 31 27 26 24 20 25 25 28 32 33 27 27 41 49 52 58 59 58 56 49 45 42 25 6 17 27 30 27 19 18 12 25 37 45 48 47 45 39 28 23 24 24 30 36 40 44 47 49 49 51 52 49 48 50 57 58 57 59 62 65 68 67 63 62 60 60 61 65 67 68
118 102 91 90 79 77 75 64 52 31 67 103 100 77 61 53 43 37 35 33 31 29 29 28 29 32 32 30 31 32 30 30 33 37 57 62 61 54 42 34 19 28 35 34 32 32 25 24 33 41 42 47 49 47 43 35 34 36 35 36 41 43 44 43 44 46 50 54 55 52 53 55 58 59 61 63 68 72 77 77 73 71 72 71 65 66 64
112 112 103 80 70 76 72 66 54 45 74 100 98 85 72 67 54 44 42 37 34 33 26 28 32 31 27 34 37 33 36 40 36 24 30 47 55 51 43 42 37 38 39 38 33 31 32 41 42 45 47 45 45 46 48 47 44 44 43 42 42 42 46 49 48 49 49 52 58 63 62 60 61 63 68 69 70 71 75 81 79 76 78 78 75 72 63
99 84 84 98 90 70 80 83 55 42 59 91 96 95 88 76 69 57 43 42 42 36 33 29 32 37 34 29 26 29 35 40 45 45 44 34 43 48 50 53 49 47 44 41 35 31 31 39 41 45 48 49 47 46 47 49 50 49 48 47 48 48 45 44 50 53 54 55 57 62 64 63 66 65 68 74 74 70 71 77 81 81 79 79 76 78 78
110 101 95 105 132 137 122 107 87 67 58 69 83 90 95 93 85 74 59 50 45 41 35 33 33 39 43 42 34 23 23 33 38 38 54 51 51 52 51 54 55 53 50 47 43 41 41 40 42 43 45 47 48 49 48 47 48 50 52 55 53 52 52 52 50 46 44 49 58 63 66 64 64 65 67 65 70 74 74 75 71 72 73 74 74 75 75
106 110 115 95 84 87 96 109 109 88 78 87 90 85 85 92 90 85 78 66 53 45 40 35 33 31 36 47 49 43 27 17 49 41 27 47 46 43 42 47 54 56 54 51 52 51 48 45 44 45 46 45 43 42 43 46 49 49 51 54 54 56 58 58 56 55 57 57 54 52 55 60 65 67 68 69 70 68 66 69 72 68 68 69 72 70 70
99 123 135 137 127 106 105 122 122 114 111 106 106 109 109 103 98 91 86 76 68 59 49 44 38 28 28 38 47 42 43 43 49 62 45 44 42 43 45 50 52 53 52 50 46 46 50 50 48 46 47 48 45 45 46 47 50 54 53 52 53 55 56 59 61 62 64 64 63 62 61 62 63 66 70 69 71 69 68 66 66 69 71 71 69 66 67
106 87 75 72 76 81 84 49 40 75 100 89 83 93 107 107 96 92 92 84 77 73 67 56 47 38 24 29 38 44 42 53 56 59 59 55 52 50 49 51 50 50 50 47 44 43 43 46 48 50 49 44 43 45 44 48 52 55 56 57 58 58 58 60 61 58 60 64 66 67 67 67 68 70 69 68 69 70 70 70 70 66 66 65 66 66 61
124 121 128 123 118 129 126 101 64 72 88 105 104 99 96 89 90 93 92 89 76 77 62 55 43 29 25 31 47 68 72 58 63 66 62 58 57 57 57 54 53 53 49 46 43 43 41 41 42 45 46 48 47 48 47 45 46 52 54 54 54 54 51 48 53 57 56 58 59 59 60 63 62 63 65 68 67 66 65 65 65 62 64 67 68 69 67
110 111 96 89 120 143 128 104 69 79 93 102 100 96 91 97 103 101 90 94 89 86 92 79 67 82 101 81 62 45 52 67 69 63 67 70 69 65 59 59 59 55 52 51 49 46 44 45 48 48 47 46 45 46 49 48 46 48 50 53 55 56 56 53 50 51 55 58 60 61 59 56 56 56 53 53 56 58 57 56 56 57 59 59 62 64 64